This is the latest recevied weather packets stored in our database for station/object OK1FET-4. If no packets are shown the sender has not sent any weather packets the latest 10 day(s).
| Time | Temp. | Humidity | Pressure | Rain* | Wind** | Luminosity | Snow |
|---|---|---|---|---|---|---|---|
| 1788001970 | 22.78° C | 56% | 1017.3 hPa | - | - | - | - |
| 1788001669 | 22.22° C | 57% | 1017.6 hPa | - | - | - | - |
| 1788001368 | 22.22° C | 58% | 1017.5 hPa | - | - | - | - |
| 1788001066 | 22.22° C | 55% | 1017.6 hPa | - | - | - | - |
| 1788000765 | 22.22° C | 56% | 1017.7 hPa | - | - | - | - |
| 1788000475 | 22.78° C | 54% | 1017.5 hPa | - | - | - | - |
| 1788000163 | 22.78° C | 56% | 1017.5 hPa | - | - | - | - |
| 1787999862 | 22.22° C | 57% | 1017.7 hPa | - | - | - | - |
| 1787999561 | 22.78° C | 59% | 1017.6 hPa | - | - | - | - |
| 1787999259 | 22.78° C | 60% | 1017.7 hPa | - | - | - | - |
| 1787998958 | 22.22° C | 65% | 1017.7 hPa | - | - | - | - |
| 1787998657 | 22.22° C | 57% | 1017.6 hPa | - | - | - | - |
| 1787998356 | 22.22° C | 65% | 1017.7 hPa | - | - | - | - |
| 1787998055 | 21.67° C | 66% | 1017.8 hPa | - | - | - | - |
| 1787997754 | 21.67° C | 67% | 1017.7 hPa | - | - | - | - |
| 1787997453 | 21.67° C | 68% | 1017.7 hPa | - | - | - | - |
| 1787997152 | 21.67° C | 70% | 1017.6 hPa | - | - | - | - |
| 1787996850 | 21.11° C | 76% | 1017.9 hPa | - | - | - | - |
| 1787996549 | 21.11° C | 71% | 1017.8 hPa | - | - | - | - |
| 1787996248 | 21.11° C | 73% | 1017.8 hPa | - | - | - | - |
| 1787995947 | 21.11° C | 76% | 1017.8 hPa | - | - | - | - |
| 1787995646 | 21.11° C | 77% | 1017.8 hPa | - | - | - | - |
| 1787995345 | 21.11° C | 77% | 1018 hPa | - | - | - | - |
| 1787995044 | 20.56° C | 80% | 1018 hPa | - | - | - | - |
| 1787994743 | 20.56° C | 77% | 1017.9 hPa | - | - | - | - |
* Rain since midnight (hover to see other rain measurements)
** Current wind speed in m/s (hover to see current wind gust speed)